TimePDT,TemperatureF,Dew PointF,Humidity,Sea Level PressureIn,VisibilityMPH,Wind Direction,Wind SpeedMPH,Gust SpeedMPH,PrecipitationIn,Events,Conditions,WindDirDegrees,DateUTC
12:56 AM,57.0,51.1,81,30.12,10.0,NNW,4.6,-,N/A,,Clear,330,2013-03-14 07:56:00
1:56 AM,57.0,51.1,81,30.13,10.0,Calm,Calm,-,N/A,,Clear,0,2013-03-14 08:56:00
2:56 AM,55.9,52.0,87,30.13,10.0,Calm,Calm,-,N/A,,Clear,0,2013-03-14 09:56:00
3:56 AM,54.0,51.1,90,30.12,10.0,West,3.5,-,N/A,,Clear,270,2013-03-14 10:56:00
4:56 AM,53.1,50.0,89,30.12,10.0,Calm,Calm,-,N/A,,Clear,0,2013-03-14 11:56:00
5:56 AM,52.0,48.9,89,30.12,10.0,Calm,Calm,-,N/A,,Clear,0,2013-03-14 12:56:00
6:56 AM,52.0,48.9,89,30.13,10.0,West,3.5,-,N/A,,Scattered Clouds,270,2013-03-14 13:56:00
7:04 AM,51.8,48.2,88,30.12,10.0,West,3.5,-,N/A,,Mostly Cloudy,270,2013-03-14 14:04:00
7:56 AM,52.0,50.0,93,30.14,10.0,Calm,Calm,-,N/A,,Overcast,0,2013-03-14 14:56:00
8:56 AM,54.0,50.0,86,30.17,10.0,NNW,3.5,-,N/A,,Overcast,330,2013-03-14 15:56:00
9:56 AM,55.9,52.0,87,30.19,10.0,NNW,3.5,-,N/A,,Overcast,340,2013-03-14 16:56:00
10:21 AM,57.2,53.6,88,30.18,10.0,Calm,Calm,-,N/A,,Scattered Clouds,0,2013-03-14 17:21:00
10:56 AM,59.0,52.0,78,30.19,10.0,Calm,Calm,-,N/A,,Clear,0,2013-03-14 17:56:00
11:56 AM,63.0,53.1,70,30.18,10.0,Calm,Calm,-,N/A,,Clear,0,2013-03-14 18:56:00
12:56 PM,62.1,52.0,70,30.19,10.0,North,11.5,-,N/A,,Clear,350,2013-03-14 19:56:00
1:56 PM,63.0,51.1,65,30.17,10.0,North,8.1,-,N/A,,Clear,350,2013-03-14 20:56:00
2:56 PM,66.0,52.0,60,30.16,10.0,NNW,11.5,-,N/A,,Clear,340,2013-03-14 21:56:00
3:56 PM,64.9,48.0,54,30.15,10.0,NNW,9.2,-,N/A,,Clear,340,2013-03-14 22:56:00
4:56 PM,62.1,46.9,58,30.15,10.0,NNW,9.2,-,N/A,,Clear,330,2013-03-14 23:56:00
5:56 PM,61.0,48.0,62,30.15,10.0,NNW,9.2,-,N/A,,Clear,330,2013-03-15 00:56:00
6:56 PM,60.1,48.0,64,30.14,10.0,NNW,4.6,-,N/A,,Clear,330,2013-03-15 01:56:00
7:56 PM,59.0,48.9,69,30.14,10.0,NNW,3.5,-,N/A,,Clear,330,2013-03-15 02:56:00
8:56 PM,57.0,48.9,74,30.16,10.0,Calm,Calm,-,N/A,,Clear,0,2013-03-15 03:56:00
9:56 PM,55.9,48.9,77,30.16,10.0,NW,8.1,-,N/A,,Clear,320,2013-03-15 04:56:00
10:56 PM,54.0,48.0,80,30.17,10.0,Calm,Calm,-,N/A,,Clear,0,2013-03-15 05:56:00
11:56 PM,53.1,46.0,77,30.16,10.0,Calm,Calm,-,N/A,,Clear,0,2013-03-15 06:56:00